{"data":{"norad_id":45235,"intl_designator":"2020-012BK","name":"STARLINK-1246","alt_names":[],"object_type":"PAYLOAD","status":"ACTIVE","operator":null,"country":"US","launch_date":"2020-02-17","launch_site_code":"AFETR","launch_vehicle":null,"mission":null,"orbit_class":"UNKNOWN","rcs_meters":null,"size_class":null,"mass_kg":null,"dimensions":null,"purposes":["comms"],"wikipedia_slug":null,"has_3d_model":false,"image_url":null,"decayed_at":null,"tle_current":{"epoch":"2026-05-25T02:49:52.491360Z","epoch_age_seconds":58727,"freshness":"FRESH","line1":"1 45235U 20012BK  26145.11796865  .00037731  00000+0  11463-2 0  9992","line2":"2 45235  53.1569  43.6109 0003054 132.5155 227.6106 15.33725466346680","mean_motion":15.33725466,"eccentricity":0.0003054,"inclination_deg":53.1569,"raan_deg":43.6109,"arg_perigee_deg":132.5155,"mean_anomaly_deg":227.6106,"bstar":0.0011463,"rev_number":34668,"period_min":93.889032419574,"perigee_km":462.6190270355,"apogee_km":466.79863726978,"semimajor_km":6842.8458321526,"source":"CELESTRAK","updated_at":"2026-05-25T13:38:16.385935Z"}}}